Weather History for KRIL - November, 2012

Change the Weather History Date:

Saturday, November 17, 2012

  Actual Average Record
Temperature  
Mean Temperature 44 °F 35 °F  
Max Temperature 55 °F 47 °F 68 °F (1967)
Min Temperature 33 °F 23 °F 2 °F (1951)
Degree Days  
Heating Degree Days 21 30  
Month to date heating degree days 391 450  
Since 1 July heating degree days 929 1094  
Cooling Degree Days 0 0  
Month to date cooling degree days 0 0  
Year to date cooling degree days 809 541  
Moisture  
Dew Point 34 °F    
Average Humidity 71    
Maximum Humidity 96    
Minimum Humidity 46    
Precipitation  
Precipitation 0.01 in 0.03 in 0.33 in (1969)
Month to date precipitation 0.42 0.73  
Year to date precipitation 7.22 13.09  
Sea Level Pressure  
Sea Level Pressure 30.13 in    
Wind  
Wind Speed 2 mph (SSE)    
Max Wind Speed 9 mph    
Max Gust Speed 14 mph    
Visibility 10 miles    
Events Rain    
T = Trace of Precipitation, MM = Missing Value Source: NWS Daily Summary

Daily Weather History Graph

Daily Weather History Graph

Search for Another Location

Airport or City:

Trip Planner

Search our weather history database for the weather conditions in past years. The results will help you decide how hot, cold, wet, or windy it might be!

Date:

Astronomy

Nov. 17, 2012 Rise Set
Actual Time 6:57 AM MST 4:53 PM MST
Civil Twilight 6:28 AM MST 5:22 PM MST
Nautical Twilight 5:56 AM MST 5:55 PM MST
Astronomical Twilight 5:24 AM MST 6:27 PM MST
Moon 10:44 AM MST (11/17) 9:07 PM MST (11/17)
Length of Visible Light 10h 53m
Length of Day
9h 55m
Waxing Crescent, 21% of the Moon is Illuminated
Nov 17
Waxing Crescent
Nov 20
First Quarter
Nov 28
Full
Dec 6
Last Quarter
Dec 13
New

Hourly Weather History & Observations

Time (MST) Temp. Windchill Dew Point Humidity Pressure Visibility Wind Dir Wind Speed Gust Speed Precip Events Conditions
12:53 AM 39.0 °F 36.8 °F 34.0 °F 82% 30.18 in 10.0 mi SSW 3.5 mph - N/A   Overcast
1:53 AM 39.0 °F 36.8 °F 34.0 °F 82% 30.19 in 10.0 mi South 3.5 mph - 0.00 in   Overcast
2:53 AM 37.9 °F - 34.0 °F 86% 30.21 in 10.0 mi Calm Calm - 0.00 in Rain Light Rain
3:53 AM 37.9 °F - 34.0 °F 86% 30.19 in 10.0 mi Calm Calm - 0.01 in   Scattered Clouds
4:53 AM 36.0 °F 32.1 °F 33.1 °F 89% 30.19 in 10.0 mi SW 4.6 mph - N/A   Overcast
5:53 AM 36.0 °F - 33.1 °F 89% 30.20 in 10.0 mi Calm Calm - N/A   Overcast
6:53 AM 34.0 °F - 32.0 °F 92% 30.22 in 10.0 mi Calm Calm - N/A   Partly Cloudy
7:53 AM 35.1 °F - 33.1 °F 92% 30.22 in 10.0 mi Calm Calm - N/A   Overcast
8:53 AM 39.0 °F - 35.1 °F 86% 30.22 in 10.0 mi Calm Calm - N/A   Overcast
9:53 AM 39.9 °F - 36.0 °F 86% 30.21 in 10.0 mi Calm Calm - N/A   Mostly Cloudy
10:53 AM 46.0 °F - 37.0 °F 71% 30.17 in 10.0 mi Calm Calm - N/A   Partly Cloudy
11:53 AM 48.9 °F - 37.0 °F 64% 30.13 in 10.0 mi Calm Calm - N/A   Mostly Cloudy
12:53 PM 51.1 °F - 36.0 °F 56% 30.09 in 10.0 mi SE 3.5 mph - N/A   Overcast
1:53 PM 54.0 °F - 34.0 °F 47% 30.05 in 10.0 mi Variable 3.5 mph - N/A   Partly Cloudy
2:53 PM 54.0 °F - 34.0 °F 47% 30.04 in 10.0 mi SSE 6.9 mph - N/A   Mostly Cloudy
3:53 PM 54.0 °F - 35.1 °F 49% 30.02 in 10.0 mi SW 3.5 mph - N/A   Scattered Clouds
4:53 PM 50.0 °F - 34.0 °F 54% 30.04 in 10.0 mi South 3.5 mph - N/A   Partly Cloudy
5:53 PM 44.1 °F 42.5 °F 35.1 °F 71% 30.06 in 10.0 mi Variable 3.5 mph - N/A   Scattered Clouds
6:53 PM 43.0 °F 41.3 °F 34.0 °F 71% 30.10 in 10.0 mi Variable 3.5 mph - N/A   Mostly Cloudy
7:53 PM 44.1 °F - 32.0 °F 63% 30.10 in 10.0 mi Calm Calm - N/A   Mostly Cloudy
8:53 PM 37.9 °F 33.5 °F 30.9 °F 76% 30.11 in 10.0 mi East 5.8 mph - N/A   Scattered Clouds
9:53 PM 37.0 °F 34.5 °F 30.9 °F 79% 30.10 in 10.0 mi SE 3.5 mph - N/A   Overcast
10:53 PM 39.0 °F - 32.0 °F 76% 30.07 in 10.0 mi Calm Calm - N/A   Overcast
11:53 PM 37.0 °F 30.4 °F 32.0 °F 82% 30.07 in 10.0 mi ENE 9.2 mph - 0.00 in   Overcast